カタログに戻る

SL-14 R/B

運用中PO
NORAD 16263·ROCKET BODY·🇷🇺 Russia

打ち上げ Nov 22, 1985 から Plesetsk Cosmodrome

Loading…

次のパス (今後24時間)

TLE

最新Source: Space-Track

元期: Sep 14, 2026, 13:26 UTC

1 16263U 85108B   26257.56021510  .00000349  00000-0  37391-4 0  9995
2 16263  82.5054 183.1287 0019663  20.2988 152.3988 14.85651623183962

AllMySatでSL-14 R/Bをリアルタイム追跡

Download on the App Store